Flag for Uruguay Weather past 2 weeks in Canelones, Uruguay

Now
59 °F

Fog.


Feels Like: 59 °F
Forecast: 53 / 72 °F
Wind: No wind

Location: Carrasco


UV Index: 3 (Moderate)

Visibility: 2 mi


Pressure: 29.89 "Hg

Humidity: 94%

Dew point: 57 °F

Location of CanelonesLocation

Historic Weather in Canelones

°F

Canelones temperature yesterday

Maximum temperature yesterday: 73 °F (at 3:00 PM)
Minimum temperature yesterday: 50 °F (at 6:00 AM)
Average temperature yesterday: 61 °F

Past Weeks' High & Low Weather Summary

 TemperatureHumidityPressure
High82 °F (Apr 3, 3:00 PM)100% (Apr 4, 2:00 AM)30.30 "Hg (Apr 4, 2:00 AM)
Low36 °F (Apr 4, 2:00 AM)43% (Apr 15, 3:00 PM)29.56 "Hg (Apr 12, 6:00 AM)
Average65 °F81%29.95 "Hg
* Reported Apr 2 1:00 AM — Apr 17 1:00 AM, Canelones, Weather by CustomWeather, © 2014

Note: Actual official high and low records may vary slightly from our data, if they occured in-between our weather recording intervals... More about our weather records

Advertising

Historic Weather Conditions — Data for Previous 24 hours

 ConditionsComfort  
Time TempWeatherWind HumidityBarometerVisibility
1:00 AM
Apr 17
59 °FFog.No wind94%29.89 "Hg2 mi
12:08 AM59 °FCool.N/A94%29.92 "HgN/A
12:00 AM59 °FFog.3 mph94%29.92 "Hg1 mi
11:07 PM
Apr 16
59 °FFog.No wind94%29.89 "Hg1 mi
11:00 PM59 °FFog.No wind100%29.92 "Hg1 mi
10:00 PM59 °FFog.No wind100%29.92 "Hg2 mi
9:00 PM64 °FLight fog.3 mph94%29.89 "HgN/A
8:00 PM64 °FClear.3 mph88%29.92 "Hg10 mi
7:00 PM66 °FClear.5 mph83%29.92 "Hg10 mi
6:00 PM68 °FClear.8 mph83%29.89 "Hg10 mi
5:00 PM72 °FSunny.7 mph69%29.92 "Hg10 mi
4:00 PM72 °FPassing clouds.7 mph65%29.92 "HgN/A
3:00 PM73 °FPassing clouds.7 mph53%29.92 "HgN/A
2:00 PM72 °FPassing clouds.7 mph57%29.95 "HgN/A
1:00 PM72 °FPassing clouds.10 mph57%29.95 "HgN/A
12:00 PM70 °FPassing clouds.13 mph60%29.98 "HgN/A
11:00 AM68 °FSunny.13 mph64%29.98 "Hg10 mi
10:00 AM64 °FSunny.9 mph68%29.98 "Hg10 mi
9:00 AM59 °FSunny.10 mph77%29.98 "Hg10 mi
8:00 AM54 °FSunny.9 mph82%29.95 "Hg10 mi
7:00 AM52 °FSunny.7 mph88%29.95 "Hg10 mi
6:00 AM50 °FClear.8 mph94%29.95 "Hg10 mi
5:00 AM52 °FClear.7 mph88%29.95 "Hg10 mi
4:00 AM54 °FClear.6 mph82%29.95 "Hg10 mi
3:00 AM54 °FClear.8 mph82%29.95 "Hg10 mi
2:00 AM54 °FClear.7 mph82%29.98 "Hg10 mi
Weather by CustomWeather, © 2014

See weather overview